TimeEDT,TemperatureF,Dew PointF,Humidity,Sea Level PressureIn,VisibilityMPH,Wind Direction,Wind SpeedMPH,Gust SpeedMPH,PrecipitationIn,Events,Conditions,WindDirDegrees,DateUTC
12:52 AM,42.1,36.0,79,30.08,10.0,Calm,Calm,-,N/A,,Partly Cloudy,0,2011-10-23 04:52:00
1:52 AM,41.0,37.0,86,30.06,10.0,South,3.5,-,N/A,,Clear,170,2011-10-23 05:52:00
2:52 AM,39.9,37.0,89,30.05,10.0,South,3.5,-,N/A,,Clear,190,2011-10-23 06:52:00
3:52 AM,37.0,35.1,93,30.08,10.0,SSW,5.8,-,N/A,,Clear,200,2011-10-23 07:52:00
4:52 AM,41.0,35.1,79,30.06,10.0,South,5.8,-,N/A,,Clear,190,2011-10-23 08:52:00
5:52 AM,39.0,35.1,86,30.08,10.0,South,5.8,-,N/A,,Clear,180,2011-10-23 09:52:00
6:52 AM,41.0,35.1,79,30.08,10.0,South,3.5,-,N/A,,Clear,170,2011-10-23 10:52:00
7:52 AM,41.0,35.1,79,30.08,10.0,South,4.6,-,N/A,,Partly Cloudy,180,2011-10-23 11:52:00
8:52 AM,42.1,36.0,79,30.10,10.0,South,5.8,-,N/A,,Mostly Cloudy,180,2011-10-23 12:52:00
9:52 AM,50.0,39.9,68,30.11,10.0,South,6.9,-,N/A,,Mostly Cloudy,190,2011-10-23 13:52:00
10:52 AM,54.0,39.9,59,30.10,10.0,South,8.1,-,N/A,,Overcast,190,2011-10-23 14:52:00
11:52 AM,57.2,39.2,51,30.10,10.0,SSW,8.1,-,N/A,,Overcast,200,2011-10-23 15:52:00
12:52 PM,60.1,41.0,49,30.09,10.0,SSW,11.5,-,N/A,,Overcast,200,2011-10-23 16:52:00
1:52 PM,62.1,42.1,48,30.05,10.0,SSW,8.1,-,N/A,,Overcast,210,2011-10-23 17:52:00
2:52 PM,63.0,44.1,50,30.03,10.0,SSW,5.8,-,N/A,,Overcast,210,2011-10-23 18:52:00
3:52 PM,62.1,44.1,52,30.02,10.0,South,8.1,-,N/A,,Overcast,190,2011-10-23 19:52:00
4:52 PM,61.0,44.1,54,30.02,10.0,South,8.1,-,N/A,,Overcast,190,2011-10-23 20:52:00
5:52 PM,60.1,42.1,51,30.02,10.0,SSW,6.9,-,N/A,,Mostly Cloudy,200,2011-10-23 21:52:00
6:52 PM,57.9,43.0,58,30.03,10.0,SSW,5.8,-,N/A,,Mostly Cloudy,210,2011-10-23 22:52:00
7:52 PM,55.0,43.0,64,30.05,10.0,South,5.8,-,N/A,,Mostly Cloudy,190,2011-10-23 23:52:00
8:52 PM,52.0,43.0,71,30.04,10.0,South,6.9,-,N/A,,Scattered Clouds,190,2011-10-24 00:52:00
9:52 PM,55.0,43.0,64,30.04,10.0,South,8.1,-,N/A,,Scattered Clouds,190,2011-10-24 01:52:00
10:52 PM,54.0,43.0,66,30.04,10.0,SSW,8.1,-,N/A,,Partly Cloudy,200,2011-10-24 02:52:00
11:52 PM,53.1,43.0,69,30.04,10.0,SSW,6.9,-,N/A,,Partly Cloudy,210,2011-10-24 03:52:00